Regional Weather Roundup
Issued by NWS

Home | Current Version | Previous Version | Text Only | Print | Product List | Glossary On
Versions: 1 2 3 4 5 6 7 8 9 10 11 12 13 14 15 16 17 18 19 20 21 22 23 24 25 26 27 28 29 30 31 32 33 34 35 36 37 38 39 40 41 42 43 44 45 46 47 48 49 50
000
ASUS43 KTOP 191908
RWRKS

WEATHER ROUNDUP FOR KANSAS
NATIONAL WEATHER SERVICE GOODLAND KS
200 PM CDT THU OCT 19 2017

NOTE:  "FAIR" INDICATES FEW OR NO CLOUDS BELOW 12,000 FEET WITH NO
SIGNIFICANT WEATHER AND/OR OBSTRUCTIONS TO VISIBILITY.

KSZ001>006-013>018-027>032-041>047-192000-
NORTHWEST KANSAS

CITY           SKY/WX    TMP DP  RH WIND       PRES   REMARKS
GOODLAND       FAIR      79  46  31 S21G30    30.00F
HAYS           FAIR      80  49  33 SE18      30.01F
HILL CITY      FAIR      83  47  28 S14       30.00F
RUSSELL        FAIR      80  50  34 S15       30.01F
$$

KSZ061>065-074>080-084>089-192000-
SOUTHWEST KANSAS

CITY           SKY/WX    TMP DP  RH WIND       PRES   REMARKS
DODGE CITY     FAIR      79  42  26 S17       30.03F
ELKHART          N/A     74  49  41 SE15        N/A
GARDEN CITY    FAIR      78  44  29 S17G23    30.02F
GREAT BEND     FAIR      78  48  34 S18       30.03F
LIBERAL        FAIR      79  49  34 S15       30.02F
PRATT          FAIR      76  44  32 S16       30.05F
$$

KSZ066>073-081>083-090>101-192000-
SOUTHEAST KANSAS

CITY           SKY/WX    TMP DP  RH WIND       PRES   REMARKS
CHANUTE        FAIR      78  53  41 S13       30.11F
COFFEYVILLE    FAIR      77  55  46 S12       30.12F
HUTCHINSON     FAIR      80  50  34 S15       30.05F
MEDICINE LODGE   N/A     74  47  38 S10G20    30.05F
NEWTON         FAIR      78  49  35 S16       30.07F
PARSONS        FAIR      77  54  44 S9        30.13F
WICHITA INTL   FAIR      76  51  41 S13       30.07F
WICHITA JABRA  FAIR      78  49  35 SW15      30.07F
WICHITA MCCONL FAIR      76  49  37 S12       30.07F
WINFIELD       FAIR      77  52  41 S12       30.10F
$$

KSZ007>012-019>026-033>040-048>060-102>105-192000-
NORTHEAST KANSAS

CITY           SKY/WX    TMP DP  RH WIND       PRES   REMARKS
CONCORDIA      FAIR      77  53  43 S8        30.02F
EMPORIA        FAIR      79  52  38 S10       30.08F
LAWRENCE       FAIR      77  52  41 S6        30.07F
MANHATTAN      FAIR      81  52  36 S12       30.03F
MARYSVILLE     FAIR      77  54  44 S9        30.03F
OLATHE IND     FAIR      77  52  41 S14       30.10F
OLATHE EXE     FAIR      76  51  41 S13       30.09F
SALINA         FAIR      79  53  40 S14       30.04F
TOPEKA BILLARD FAIR      79  53  40 S9        30.06F
TOPEKA FORBES  FAIR      80  52  37 S10       30.06F
$$



USA.gov is the U.S. government's official web portal to all federal, state and local government web resources and services.